{"data":{"norad_id":46782,"intl_designator":"2020-074AV","name":"STARLINK-1835","alt_names":[],"object_type":"PAYLOAD","status":"ACTIVE","operator":null,"country":"US","launch_date":"2020-10-24","launch_site_code":"AFETR","launch_vehicle":null,"mission":null,"orbit_class":"UNKNOWN","rcs_meters":null,"size_class":null,"mass_kg":null,"dimensions":null,"purposes":["comms"],"wikipedia_slug":null,"has_3d_model":false,"image_url":null,"decayed_at":null,"tle_current":{"epoch":"2026-08-29T06:52:35.399712Z","epoch_age_seconds":1941240,"freshness":"OLD","line1":"1 46782U 20074AV  26241.28652083  .02782647  11956-4  86698-3 0  9991","line2":"2 46782  53.0195 131.1403 0009070 247.6579 112.3500 16.25734627324588","mean_motion":16.25734627,"eccentricity":0.000907,"inclination_deg":53.0195,"raan_deg":131.1403,"arg_perigee_deg":247.6579,"mean_anomaly_deg":112.35,"bstar":0.00086698,"rev_number":32458,"period_min":88.57534163846,"perigee_km":198.0575591665,"apogee_km":209.99760571905,"semimajor_km":6582.1645824428,"source":"CELESTRAK","updated_at":"2026-08-29T09:01:30.368240Z"}}}